Location: Eymir
(36.7333°N, 29.7833°E)
Time: 17:19:51
(UTC+00:00)

Cosmos 1758 - Pass Details

Date: 14 January 2026
Orbit: 479 x 500 km, 82.5° (Epoch: 17 February)

Event Time Altitude Azimuth Distance (km) Brightness Sun altitude
Rises 03:46:12 0° 179° (S) 2,581 7.0 -17.1°
Reaches altitude 10° 03:48:20 10° 176° (S) 1,700 6.0 -16.7°
Maximum altitude 03:52:01 63° 95° (E) 562 3.6 -16.0°
Drops below altitude 10° 03:55:42 10° 14° (NNE) 1,703 5.8 -15.3°
Sets 03:57:49 0° 11° (N) 2,586 6.7 -14.9°
